Flag for India Weather past 2 weeks in Kãnpur, Uttar Pradesh, India

Now
88 °F

Partly cloudy.


Feels Like: 105 °F
Forecast: 83 / 101 °F
Wind: No wind

Location: Lucknow / Amausi

Current Time: Aug 20, 2014 at 9:02:43 PM

Latest Report: Aug 20, 2014 at 8:00 PM


Visibility: 2 mi

Pressure: 29.62 "Hg

Humidity: 79%

Dew point: 81 °F

Location of KãnpurLocation

Historic Weather in Kãnpur — Graph

°F

Kãnpur temperature yesterday

Maximum temperature yesterday: 100 °F (at 1:30 PM)
Minimum temperature yesterday: 82 °F (at 2:00 AM)
Average temperature yesterday: 90 °F

Past Weeks' High & Low Weather Summary

 TemperatureHumidityPressure
High100 °F (Aug 19, 1:30 PM)100% (Aug 5, 7:00 PM)29.77 "Hg (Aug 5, 7:00 PM)
Low79 °F (Aug 7, 5:30 AM)47% (Aug 19, 12:00 PM)29.39 "Hg (Aug 5, 6:30 PM)
Average88 °F79%29.55 "Hg
* Reported Aug 5 6:30 PM — Aug 20 7:00 PM, Kãnpur, Weather by CustomWeather, © 2014

Note: Actual official high and low records may vary slightly from our data, if they occured in-between our weather recording intervals... More about our weather records

Advertising

Kãnpur weather history for previous 24 hours

 ConditionsComfort  
Time TempWeatherWind HumidityBarometerVisibility
7:00 PM
Aug 20
90 °FBroken clouds.No wind71%29.59 "Hg2 mi
6:30 PM91 °FPartly sunny.2 mph67%29.56 "Hg2 mi
6:00 PM93 °FScattered clouds.5 mph63%29.56 "Hg2 mi
5:30 PM97 °FScattered clouds.7 mph60%29.56 "Hg2 mi
5:00 PM99 °FHaze.7 mph57%29.56 "Hg2 mi
4:30 PM99 °FHaze.8 mph57%29.56 "Hg2 mi
4:00 PM100 °FScattered clouds.8 mph53%29.56 "Hg2 mi
3:30 PM100 °FScattered clouds.8 mph53%29.59 "Hg2 mi
3:00 PM100 °FScattered clouds.12 mph53%29.59 "Hg2 mi
2:30 PM100 °FScattered clouds.8 mph57%29.62 "Hg2 mi
2:00 PM100 °FScattered clouds.9 mph57%29.62 "Hg2 mi
1:00 PM100 °FScattered clouds.6 mph57%29.65 "Hg2 mi
11:30 AM99 °FBroken clouds.6 mph60%29.68 "Hg2 mi
11:00 AM99 °FPartly sunny.6 mph60%29.68 "Hg2 mi
10:30 AM97 °FPartly sunny.3 mph67%29.68 "Hg2 mi
10:00 AM93 °FPartly sunny.3 mph75%29.68 "Hg2 mi
9:30 AM91 °FBroken clouds.5 mph75%29.68 "Hg2 mi
9:00 AM90 °FBroken clouds.5 mph79%29.68 "Hg2 mi
8:30 AM88 °FBroken clouds.No wind84%29.68 "Hg2 mi
8:00 AM86 °FBroken clouds.No wind84%29.68 "Hg2 mi
7:30 AM84 °FBroken clouds.No wind89%29.68 "Hg2 mi
7:00 AM82 °FBroken clouds.No wind89%29.68 "Hg2 mi
6:30 AM81 °FBroken clouds.No wind94%29.65 "Hg2 mi
6:00 AM81 °FPartly cloudy.No wind94%29.65 "Hg2 mi
5:30 AM81 °FPartly cloudy.No wind94%29.65 "Hg2 mi
2:00 AM84 °FPassing clouds.No wind84%29.65 "Hg2 mi
1:00 AM84 °FPassing clouds.No wind84%29.65 "Hg2 mi
12:00 AM84 °FPassing clouds.No wind84%29.65 "Hg2 mi
11:00 PM
Aug 19
84 °FPassing clouds.No wind89%29.65 "Hg2 mi
10:00 PM84 °FPassing clouds.No wind84%29.65 "Hg2 mi
9:00 PM86 °FPassing clouds.No wind79%29.65 "Hg3 mi
Weather by CustomWeather, © 2014

See weather overviewHow to use our weather pages